This is the latest recevied weather packets stored in our database for station/object N1ORT. If no packets are shown the sender has not sent any weather packets the latest 10 day(s).
| Time | Temp. | Humidity | Pressure | Rain* | Wind** | Luminosity | Snow |
|---|---|---|---|---|---|---|---|
| 1777136051 | 12.78° C | 36% | 1016 hPa | 0 mm | - | 874 W/m² | - |
| 1777135745 | 12.78° C | 35% | 1016 hPa | 0 mm | - | 1007 W/m² | - |
| 1777135442 | 12.78° C | 37% | 1016.2 hPa | 0 mm | - | 924 W/m² | - |
| 1777135133 | 12.22° C | 36% | 1016.3 hPa | 0 mm | - | 903 W/m² | - |
| 1777134831 | 11.67° C | 38% | 1016.5 hPa | 0 mm | - | 567 W/m² | - |
| 1777134526 | 11.11° C | 39% | 1016.2 hPa | 0 mm | - | 441 W/m² | - |
| 1777134223 | 11.11° C | 38% | 1016.2 hPa | 0 mm | - | 471 W/m² | - |
| 1777133920 | 11.67° C | 37% | 1016.4 hPa | 0 mm | - | 563 W/m² | - |
| 1777133616 | 11.11° C | 38% | 1016.4 hPa | 0 mm | - | 864 W/m² | - |
| 1777133314 | 11.67° C | 41% | 1016.3 hPa | 0 mm | - | 732 W/m² | - |
| 1777133009 | 11.11° C | 39% | 1016.5 hPa | 0 mm | - | 675 W/m² | - |
| 1777132706 | 11.11° C | 41% | 1016.3 hPa | 0 mm | - | 555 W/m² | - |
| 1777132402 | 11.11° C | 42% | 1016.3 hPa | 0 mm | - | 712 W/m² | - |
| 1777132100 | 10.56° C | 40% | 1016.4 hPa | 0 mm | - | 553 W/m² | - |
| 1777131795 | 10.56° C | 42% | 1016.5 hPa | 0 mm | - | 546 W/m² | - |
| 1777131492 | 10.56° C | 40% | 1016.2 hPa | 0 mm | - | 614 W/m² | - |
| 1777131191 | 10.56° C | 41% | 1016.4 hPa | 0 mm | - | 715 W/m² | - |
| 1777130887 | 10.56° C | 41% | 1016.7 hPa | 0 mm | - | 805 W/m² | - |
| 1777130583 | 10.56° C | 43% | 1016.4 hPa | 0 mm | - | 721 W/m² | - |
| 1777130280 | 10.56° C | 46% | 1016.5 hPa | 0 mm | - | 670 W/m² | - |
| 1777129976 | 10° C | 42% | 1016.5 hPa | 0 mm | - | 870 W/m² | - |
| 1777129676 | 10° C | 42% | 1016.7 hPa | 0 mm | - | 801 W/m² | - |
| 1777129371 | 10° C | 42% | 1017 hPa | 0 mm | - | 803 W/m² | - |
| 1777129065 | 9.44° C | 50% | 1016.9 hPa | 0 mm | - | 564 W/m² | - |
| 1777128762 | 9.44° C | 41% | 1017 hPa | 0 mm | - | 417 W/m² | - |
* Rain latest hour (hover to see other rain measurements)
** Current wind speed in m/s (hover to see current wind gust speed)